Portada
METAR-TAF:

METAR-TAF

Aeroports :

Rajahmundry, Índia

latitud: 17-06-37N, longitud: 81-49-06E, altitud: 46 m

Observació

L'informe es va fer fa 16 minuts, a les 07:00 UTC
Vent 7 kt del Sud-Oest
Temperatura 35°C
Humitat 50%
Pressió 1008 hPa
Visibilitat: 8000 m
Escasses núvols a una alçada de 2000 ft

METAR: VORY 080700Z 22007KT 8000 FEW020 35/23 Q1008 NOSIG

Hora: 12:46 (07:16 UTC)

Pronòstic

L'informe es va fer fa 2 hores i 16 minuts, a les 05:00 UTC
Pronòstic vàlid del 08 a les 06 UTC al 08 a les 15 UTC
Vent 8 kt del Sud-Oest
Visibilitat: 6000 m
Núvols disperses a una alçada de 2000 ft
Núvols disperses a una alçada de 2500 ft
Temporalment
l' 08 a les 09 UTC al 08 a les 15 UTC
Vent 15 kt del Oest/Nord-Oest
Visibilitat: 3000 m
Núvols disperses a una alçada de 1000 ft
Escasses núvols a una alçada de 3000 ft, Cumulonimbus.
Cel ennuvolat a una alçada de 8000 ft

TAF: VORY 080500Z 0806/0815 22008KT 6000 SCT020 SCT025 TEMPO 0809/0815 30015KT 3000 SCT010 FEW030CB BKN080

Observacions i pronòstics meteorològics de més de 4000 aeroports (METAR i TAF).

Les estacions disponibles són els punts grocs i vermells al mapa.

Posi el ratolí al punt desitjat per veure el nom de l'estació.

Feu clic per veure les observacions i els pronòstics meteorològics.

Per canviar el mapa: feu clic els botons verds amb una creu de color negre per apropar; al botó verd amb un guió per allunyar la imatge; o en les fletxes verdes per a mapes adjacents.


METAR-TAF: